Location: Crescent
(42.8242°N, 73.7329°W)
Time: 16:10:45
(UTC+00:00)

A-11 Canister half - Pass Details

Date: 17 February 2026
Orbit: 1525 x 1683 km, 47.3° (Epoch: 9 March)

Event Time Altitude Azimuth Distance (km) Brightness Sun altitude
Rises 01:48:37 0° 287° (WNW) 4,679 12.5 -37.0°
Reaches altitude 10° 01:51:40 10° 289° (WNW) 3,693 11.7 -37.5°
Enters shadow 02:00:07 72° 331° (NNW) 1,599 9.0 -39.0°
